Time,TemperatureF,DewpointF,PressureIn,WindDirection,WindDirectionDegrees,WindSpeedMPH,WindSpeedGustMPH,Humidity,HourlyPrecipIn,Conditions,Clouds,dailyrainin,SoftwareType,DateUTC
2013-05-29 00:13:00,58.6,-41.7,30.01,SSW,202,0.0,-999.0,1,-99.99,,,0.00,Acu-Link.com,2013-05-29 04:13:00,
2013-05-29 00:28:00,58.6,-41.7,30.01,South,180,0.0,-999.0,1,-99.99,,,0.00,Acu-Link.com,2013-05-29 04:28:00,
2013-05-29 00:43:00,58.8,-41.6,30.01,ESE,112,0.0,-999.0,1,-99.99,,,0.00,Acu-Link.com,2013-05-29 04:43:00,
2013-05-29 00:59:00,58.8,-41.6,30.00,ESE,112,0.0,-999.0,1,-99.99,,,0.01,Acu-Link.com,2013-05-29 04:59:00,
2013-05-29 01:14:00,58.8,-41.6,30.01,SW,225,0.0,-999.0,1,-99.99,,,0.01,Acu-Link.com,2013-05-29 05:14:00,
2013-05-29 01:29:00,58.6,-41.7,29.99,ENE,67,0.0,-999.0,1,-99.99,,,0.01,Acu-Link.com,2013-05-29 05:29:00,
2013-05-29 01:44:00,58.5,-41.8,30.00,ENE,67,0.0,-999.0,1,-99.99,,,0.01,Acu-Link.com,2013-05-29 05:44:00,
2013-05-29 02:00:00,58.5,-41.8,29.98,ENE,67,0.0,-999.0,1,-99.99,,,0.01,Acu-Link.com,2013-05-29 06:00:00,
2013-05-29 02:15:00,58.3,-41.9,29.97,NNE,22,0.0,-999.0,1,-99.99,,,0.01,Acu-Link.com,2013-05-29 06:15:00,
2013-05-29 02:30:00,58.5,-41.8,29.97,SE,135,0.0,-999.0,1,-99.99,,,0.01,Acu-Link.com,2013-05-29 06:30:00,
2013-05-29 02:46:00,58.8,-41.6,29.97,South,180,0.0,-999.0,1,-99.99,,,0.01,Acu-Link.com,2013-05-29 06:46:00,
2013-05-29 03:01:00,58.5,-41.8,29.96,ESE,112,0.0,-999.0,1,-99.99,,,0.01,Acu-Link.com,2013-05-29 07:01:00,
2013-05-29 03:16:00,58.5,-41.8,29.97,SE,135,0.0,-999.0,1,-99.99,,,0.01,Acu-Link.com,2013-05-29 07:16:00,
2013-05-29 03:31:00,58.5,-41.8,29.96,East,90,0.0,-999.0,1,-99.99,,,0.01,Acu-Link.com,2013-05-29 07:31:00,
2013-05-29 03:46:00,58.6,-41.7,29.94,South,180,0.0,-999.0,1,-99.99,,,0.01,Acu-Link.com,2013-05-29 07:46:00,
2013-05-29 04:02:00,58.8,-41.6,29.95,SSW,202,0.0,-999.0,1,-99.99,,,0.01,Acu-Link.com,2013-05-29 08:02:00,
2013-05-29 04:17:00,58.8,-41.6,29.94,ESE,112,0.0,-999.0,1,-99.99,,,0.01,Acu-Link.com,2013-05-29 08:17:00,
2013-05-29 04:33:00,58.8,-41.6,29.97,South,180,0.0,-999.0,1,-99.99,,,0.01,Acu-Link.com,2013-05-29 08:33:00,
2013-05-29 04:48:00,58.6,-41.7,29.94,SE,135,0.0,-999.0,1,-99.99,,,0.01,Acu-Link.com,2013-05-29 08:48:00,
2013-05-29 05:03:00,58.6,-41.7,29.95,SE,135,0.0,-999.0,1,-99.99,,,0.01,Acu-Link.com,2013-05-29 09:03:00,
2013-05-29 05:18:00,58.8,-41.6,29.95,East,90,0.0,-999.0,1,-99.99,,,0.01,Acu-Link.com,2013-05-29 09:18:00,
2013-05-29 05:33:00,58.8,-41.6,29.95,South,180,0.0,-999.0,1,-99.99,,,0.01,Acu-Link.com,2013-05-29 09:33:00,
2013-05-29 05:48:00,59.2,-41.3,29.95,SE,135,0.0,-999.0,1,-99.99,,,0.01,Acu-Link.com,2013-05-29 09:48:00,
2013-05-29 06:04:00,59.2,-41.3,29.96,SSE,157,0.0,-999.0,1,-99.99,,,0.01,Acu-Link.com,2013-05-29 10:04:00,
2013-05-29 06:19:00,59.2,-41.3,29.95,ESE,112,0.0,-999.0,1,-99.99,,,0.01,Acu-Link.com,2013-05-29 10:19:00,
2013-05-29 06:34:00,59.2,-41.3,29.95,SW,225,0.0,-999.0,1,-99.99,,,0.01,Acu-Link.com,2013-05-29 10:34:00,
2013-05-29 06:50:00,59.2,-41.3,29.95,SE,135,0.0,-999.0,1,-99.99,,,0.01,Acu-Link.com,2013-05-29 10:50:00,
2013-05-29 07:05:00,59.0,-41.5,29.95,SSW,202,0.0,-999.0,1,-99.99,,,0.01,Acu-Link.com,2013-05-29 11:05:00,
2013-05-29 07:20:00,59.4,-41.2,29.95,ESE,112,0.0,-999.0,1,-99.99,,,0.01,Acu-Link.com,2013-05-29 11:20:00,
2013-05-29 07:35:00,59.4,-41.2,29.95,NNE,22,0.0,-999.0,1,-99.99,,,0.01,Acu-Link.com,2013-05-29 11:35:00,
2013-05-29 07:51:00,59.4,-41.2,29.96,SE,135,0.0,-999.0,1,-99.99,,,0.01,Acu-Link.com,2013-05-29 11:51:00,
2013-05-29 08:06:00,59.5,-41.2,29.96,SSW,202,0.0,-999.0,1,-99.99,,,0.01,Acu-Link.com,2013-05-29 12:06:00,
2013-05-29 08:21:00,59.9,-40.9,29.96,South,180,0.0,-999.0,1,-99.99,,,0.01,Acu-Link.com,2013-05-29 12:21:00,
2013-05-29 08:37:00,59.9,-40.9,29.95,ESE,112,0.0,-999.0,1,-99.99,,,0.01,Acu-Link.com,2013-05-29 12:37:00,
2013-05-29 08:52:00,60.3,-40.7,29.97,South,180,0.0,-999.0,1,-99.99,,,0.02,Acu-Link.com,2013-05-29 12:52:00,
2013-05-29 09:07:00,60.6,-40.5,29.96,SSW,202,0.0,-999.0,1,-99.99,,,0.02,Acu-Link.com,2013-05-29 13:07:00,
2013-05-29 09:23:00,61.2,-40.1,29.97,SSW,202,0.0,-999.0,1,-99.99,,,0.02,Acu-Link.com,2013-05-29 13:23:00,
2013-05-29 09:38:00,62.1,-39.6,29.96,SSW,202,0.0,-999.0,1,-99.99,,,0.02,Acu-Link.com,2013-05-29 13:38:00,
2013-05-29 09:53:00,63.1,-39.0,29.96,West,270,0.0,-999.0,1,-99.99,,,0.02,Acu-Link.com,2013-05-29 13:53:00,
2013-05-29 10:08:00,63.9,-38.5,29.96,SSW,202,1.7,-999.0,1,-99.99,,,0.02,Acu-Link.com,2013-05-29 14:08:00,
2013-05-29 10:23:00,63.9,-38.5,29.95,West,270,1.7,-999.0,1,-99.99,,,0.02,Acu-Link.com,2013-05-29 14:23:00,
2013-05-29 10:38:00,63.9,-38.5,29.95,South,180,0.0,-999.0,1,-99.99,,,0.02,Acu-Link.com,2013-05-29 14:38:00,
2013-05-29 10:54:00,65.3,-37.6,29.96,SSW,202,0.0,-999.0,1,-99.99,,,0.02,Acu-Link.com,2013-05-29 14:54:00,
2013-05-29 11:09:00,68.5,-35.7,29.96,SW,225,1.7,-999.0,1,-99.99,,,0.02,Acu-Link.com,2013-05-29 15:09:00,
2013-05-29 11:24:00,68.9,-35.5,29.94,SSW,202,1.1,-999.0,1,-99.99,,,0.02,Acu-Link.com,2013-05-29 15:24:00,
2013-05-29 11:40:00,71.2,-34.1,29.94,South,180,1.7,-999.0,1,-99.99,,,0.02,Acu-Link.com,2013-05-29 15:40:00,
2013-05-29 11:55:00,72.1,-33.6,29.94,South,180,0.0,-999.0,1,-99.99,,,0.02,Acu-Link.com,2013-05-29 15:55:00,
2013-05-29 12:10:00,73.0,-33.0,29.96,SSE,157,0.0,-999.0,1,-99.99,,,0.02,Acu-Link.com,2013-05-29 16:10:00,
2013-05-29 12:26:00,75.0,-31.8,29.95,SSW,202,0.0,-999.0,1,-99.99,,,0.02,Acu-Link.com,2013-05-29 16:26:00,
2013-05-29 12:41:00,76.3,33.5,29.94,SW,225,1.1,-999.0,21,-99.99,,,0.02,Acu-Link.com,2013-05-29 16:41:00,
2013-05-29 12:56:00,79.3,59.0,29.93,SW,225,0.0,-999.0,50,-99.99,,,0.02,Acu-Link.com,2013-05-29 16:56:00,
2013-05-29 13:11:00,81.9,69.0,29.95,SW,225,0.0,-999.0,65,-99.99,,,0.02,Acu-Link.com,2013-05-29 17:11:00,
2013-05-29 13:27:00,82.8,74.0,29.95,SW,225,1.7,-999.0,75,-99.99,,,0.02,Acu-Link.com,2013-05-29 17:27:00,
2013-05-29 13:42:00,82.0,76.7,29.94,SW,225,1.7,-999.0,84,-99.99,,,0.02,Acu-Link.com,2013-05-29 17:42:00,
2013-05-29 13:57:00,84.0,77.1,29.93,SW,225,1.1,-999.0,80,-99.99,,,0.02,Acu-Link.com,2013-05-29 17:57:00,
2013-05-29 14:13:00,85.3,78.8,29.94,SSW,202,1.7,-999.0,81,-99.99,,,0.02,Acu-Link.com,2013-05-29 18:13:00,
2013-05-29 14:28:00,87.1,79.4,29.92,SE,135,1.7,-999.0,78,-99.99,,,0.02,Acu-Link.com,2013-05-29 18:28:00,
2013-05-29 14:43:00,86.4,79.1,29.93,East,90,0.0,-999.0,79,-99.99,,,0.02,Acu-Link.com,2013-05-29 18:43:00,
2013-05-29 14:59:00,86.9,80.0,29.92,SW,225,1.1,-999.0,80,-99.99,,,0.02,Acu-Link.com,2013-05-29 18:59:00,
2013-05-29 15:14:00,86.0,80.6,29.92,South,180,1.7,-999.0,84,-99.99,,,0.02,Acu-Link.com,2013-05-29 19:14:00,
2013-05-29 15:29:00,86.7,81.6,29.93,SW,225,0.0,-999.0,85,-99.99,,,0.02,Acu-Link.com,2013-05-29 19:29:00,
2013-05-29 15:44:00,86.4,81.0,29.90,SW,225,1.7,-999.0,84,-99.99,,,0.02,Acu-Link.com,2013-05-29 19:44:00,
2013-05-29 15:59:00,86.2,81.5,29.92,ESE,112,1.7,-999.0,86,-99.99,,,0.02,Acu-Link.com,2013-05-29 19:59:00,
2013-05-29 16:15:00,84.9,81.6,29.91,SSW,202,1.7,-999.0,90,-99.99,,,0.02,Acu-Link.com,2013-05-29 20:15:00,
2013-05-29 16:30:00,86.0,81.3,29.89,SW,225,1.1,-999.0,86,-99.99,,,0.02,Acu-Link.com,2013-05-29 20:30:00,
2013-05-29 16:45:00,84.6,82.7,29.90,WSW,247,0.0,-999.0,94,-99.99,,,0.02,Acu-Link.com,2013-05-29 20:45:00,
2013-05-29 17:00:00,83.3,82.0,29.90,South,180,0.0,-999.0,96,-99.99,,,0.02,Acu-Link.com,2013-05-29 21:00:00,
2013-05-29 17:16:00,84.0,82.7,29.91,SSW,202,0.0,-999.0,96,-99.99,,,0.02,Acu-Link.com,2013-05-29 21:16:00,
2013-05-29 17:31:00,85.8,80.8,29.91,WSW,247,0.0,-999.0,85,-99.99,,,0.02,Acu-Link.com,2013-05-29 21:31:00,
2013-05-29 17:46:00,85.8,79.6,29.90,SSE,157,0.0,-999.0,82,-99.99,,,0.02,Acu-Link.com,2013-05-29 21:46:00,
2013-05-29 18:02:00,87.4,80.1,29.89,SW,225,1.1,-999.0,79,-99.99,,,0.02,Acu-Link.com,2013-05-29 22:02:00,
2013-05-29 18:17:00,86.7,80.5,29.88,SSW,202,0.0,-999.0,82,-99.99,,,0.02,Acu-Link.com,2013-05-29 22:17:00,
2013-05-29 18:32:00,84.6,81.3,29.88,SW,225,0.0,-999.0,90,-99.99,,,0.02,Acu-Link.com,2013-05-29 22:32:00,
2013-05-29 18:47:00,83.1,82.5,29.88,SSW,202,0.0,-999.0,98,-99.99,,,0.02,Acu-Link.com,2013-05-29 22:47:00,
2013-05-29 19:03:00,81.3,80.7,29.88,SW,225,0.0,-999.0,98,-99.99,,,0.02,Acu-Link.com,2013-05-29 23:03:00,
2013-05-29 19:18:00,79.5,78.9,29.89,SW,225,0.0,-999.0,98,-99.99,,,0.02,Acu-Link.com,2013-05-29 23:18:00,
2013-05-29 19:33:00,78.3,77.7,29.89,SSW,202,0.0,-999.0,98,-99.99,,,0.02,Acu-Link.com,2013-05-29 23:33:00,
2013-05-29 19:49:00,76.3,75.7,29.88,ESE,112,0.0,-999.0,98,-99.99,,,0.02,Acu-Link.com,2013-05-29 23:49:00,
2013-05-29 20:04:00,73.8,73.2,29.90,East,90,0.0,-999.0,98,-99.99,,,0.02,Acu-Link.com,2013-05-30 00:04:00,
2013-05-29 20:19:00,72.0,71.4,29.91,ENE,67,0.0,-999.0,98,-99.99,,,0.02,Acu-Link.com,2013-05-30 00:19:00,
2013-05-29 20:35:00,70.7,67.3,29.89,NE,45,0.0,-999.0,89,-99.99,,,0.02,Acu-Link.com,2013-05-30 00:35:00,
2013-05-29 20:50:00,70.3,52.9,29.88,ESE,112,0.0,-999.0,54,-99.99,,,0.02,Acu-Link.com,2013-05-30 00:50:00,
2013-05-29 21:05:00,70.2,27.3,29.90,NE,45,0.0,-999.0,20,-99.99,,,0.02,Acu-Link.com,2013-05-30 01:05:00,
2013-05-29 21:20:00,69.6,-35.1,29.89,NE,45,0.0,-999.0,1,-99.99,,,0.02,Acu-Link.com,2013-05-30 01:20:00,
2013-05-29 21:36:00,69.3,-35.2,29.91,NNE,22,0.0,-999.0,1,-99.99,,,0.02,Acu-Link.com,2013-05-30 01:36:00,
2013-05-29 21:51:00,69.1,-35.4,29.92,ENE,67,0.0,-999.0,1,-99.99,,,0.02,Acu-Link.com,2013-05-30 01:51:00,
2013-05-29 22:06:00,69.1,-35.4,29.92,NE,45,0.0,-999.0,1,-99.99,,,0.02,Acu-Link.com,2013-05-30 02:06:00,
2013-05-29 22:21:00,69.1,-35.4,29.94,ESE,112,0.0,-999.0,1,-99.99,,,0.02,Acu-Link.com,2013-05-30 02:21:00,
2013-05-29 22:37:00,69.1,-35.4,29.94,ESE,112,0.0,-999.0,1,-99.99,,,0.02,Acu-Link.com,2013-05-30 02:37:00,
2013-05-29 22:52:00,70.7,-34.4,29.94,SSW,202,0.0,-999.0,1,-99.99,,,0.02,Acu-Link.com,2013-05-30 02:52:00,
2013-05-29 23:07:00,69.4,-35.2,29.94,NE,45,0.0,-999.0,1,-99.99,,,0.02,Acu-Link.com,2013-05-30 03:07:00,
2013-05-29 23:22:00,68.5,-35.7,29.95,ESE,112,0.0,-999.0,1,-99.99,,,0.02,Acu-Link.com,2013-05-30 03:22:00,
2013-05-29 23:38:00,69.1,-35.4,29.95,ENE,67,2.2,-999.0,1,-99.99,,,0.02,Acu-Link.com,2013-05-30 03:38:00,
2013-05-29 23:53:00,69.1,-35.4,29.97,ESE,112,0.0,-999.0,1,-99.99,,,0.02,Acu-Link.com,2013-05-30 03:53:00,